Preview of NWS' New Version of Forecast
This preview is not operational and should not be used for support decisions.

Terminal Aerodrome Forecast (TAF)

Issued by National Weather Service (NWS)

                            
000
FTUS42 KMFL 140320 AAA
TAFMIA
TAF AMD
KMIA 140320Z 1403/1506 12006KT P6SM FEW025 FEW060 SCT250
     FM141700 11008KT P6SM SCT025=